sat.trackr.live / text

‹ back to catalog

STARLINK-31722

NORAD 59549 · 2024-074R

PAYLOAD ACTIVE UNKNOWN

§ Identity

Operator
Country
US
Launch date
2024-04-18
Launch site
AFETR
Launch vehicle
Mass (kg)
RCS (m²)

Purposes: comms

External: N2YO · Heavens-Above · Gunter

§ Orbital elements

Epoch: 2026-09-21T10:06:07.056000Z

Period
94.27 min
Inclination
43.0041°
Eccentricity
0.0001542
Mean motion
15.27576942 rev/d
Perigee alt
482.0 km
Apogee alt
484.1 km
Semi-major
6,861.2 km
B*
-6.0864e-5
RAAN
317.7291°
Arg perigee
270.7347°
Mean anomaly
89.3328°
Rev number
13,595

§ Raw data

STARLINK-317221 59549U 24074R   26264.42091500 -.00001937  00000+0 -60864-4 0  99992 59549  43.0041 317.7291 0001542 270.7347  89.3328 15.27576942135952

JSON: /api/v1/satellites/59549 · /tle

For live sub-satellite position, see the globe view (requires WebGL).

§ Visibility from observer

Set your observer location to see the next 7 days of passes ≥ 10°. The values pass through the URL so the page stays shareable.

No JS? Fill the form by hand. The geolocation button needs JavaScript.